Regional Weather Roundup
Issued by NWS Cleveland, OH

Home | Current Version | Previous Version | Graphics & Text | Print | Product List | Glossary On
Versions: 1 2 3 4 5 6 7 8 9 10 11 12 13 14 15 16 17 18 19 20 21 22 23 24 25 26 27 28 29 30 31 32 33 34 35 36 37 38 39 40 41 42 43 44 45 46 47 48 49 50
000
ASUS41 KCLE 281102
RWRCLE
OHIO REGIONAL WEATHER ROUNDUP
NATIONAL WEATHER SERVICE CLEVELAND, OH
700 AM EDT FRI APR 28 2017

NOTE: "FAIR" INDICATES FEW OR NO CLOUDS BELOW 12,000 FEET WITH NO
SIGNIFICANT WEATHER AND/OR OBSTRUCTIONS TO VISIBILITY.

OHZ001>008-015>018-024>027-034-035-043-044-281200-
   NORTHWEST OHIO

CITY           SKY/WX    TMP DP  RH WIND       PRES   REMARKS
DEFIANCE       CLOUDY    44  38  79 SE6       29.93F
FINDLAY        CLEAR     43  39  86 SE6       29.97S
TOLEDO EXPRESS CLOUDY    42  39  89 S6        29.96R
TOLEDO EXEC    PTCLDY    43  40  89 S7        29.97F
LIMA           CLOUDY    43  42  97 E7        29.94F
$$

OHZ009>014-019>023-028>033-038-089-281200-
   NORTHEAST OHIO

CITY           SKY/WX    TMP DP  RH WIND       PRES   REMARKS
CLE-HOPKINS    PTCLDY    47  40  76 S6        30.02R
CLE-LAKEFRONT  PTCLDY    48  41  76 SW9       30.00R
CUY CO. ARPT   MOCLDY    48  45  87 SW6       30.01
LORAIN-ELYRIA  PTCLDY    42  38  85 S5        30.01R
ASHTABULA      PTCLDY    47  43  86 SW7       30.01R
AKRON-CANTON   MOCLDY    49  41  74 W6        30.02R
WOOSTER        CLEAR     43  40  89 CALM      30.02R
MANSFIELD      CLEAR     43  41  93 S3        30.00S
YOUNGSTOWN     MOCLDY    48  42  80 W5        30.02R
$$

OHZ042-051>053-060>062-070>072-077>081-281200-
  SOUTHWEST OHIO

CITY           SKY/WX    TMP DP  RH WIND       PRES   REMARKS
CINC-COVINGTON MOCLDY    50  46  86 E8        29.99R
CINC-LUNKEN    MOCLDY    47  47 100 N3        30.02R
HAMILTON       PTCLDY    46  45  96 E3        30.00R
DAYTON         CLOUDY    46  43  89 E8        29.99R
WRIGHT-PAT AFB CLOUDY    45  44  95 E5        30.00R
DAYTON GENERAL CLOUDY    47  43  86 E7        29.98R
WILMINGTON     CLOUDY    45  44  97 E5        30.00R
$$

OHZ036-037-039>041-045>050-054>059-063>069-073>076-082>088-281200-
  CENTRAL AND SOUTHEAST OHIO

CITY           SKY/WX    TMP DP  RH WIND       PRES   REMARKS
COLUMBUS       CLOUDY    50  45  83 E3        30.00S
OSU AIRPORT    PTCLDY    47  45  93 CALM      30.01R
BOLTON FIELD   CLOUDY    45  45  99 CALM      30.01S FOG
RICKENBACK AFB CLOUDY    44  44 100 SE3       30.01R FOG
NEWARK         CLOUDY    44  42  93 E3        30.01R
MARION         CLEAR     42  39  89 SE3       30.00S FOG
LANCASTER      MOCLDY    45  42  89 CALM      30.01S
ZANESVILLE     CLEAR     43  41  93 CALM      30.02R FOG
NEW PHILLY     NOT AVBL
$$




USA.gov is the U.S. government's official web portal to all federal, state and local government web resources and services.